Temp
83 83 81 75 62 61 58 66 75 71 73 78 81 76 72 73 70 60 75 79 78 78 80 81 82 83 83 83 83 83 83 83 83 83 83 83 83 84 84 84 83 83 83 84 83 83 84 84 83
81 84 76 69 58 53 56 71 67 71 78 80 80 78 72 68 76 72 72 79 80 79 80 81 82 83 83 83 83 83 83 83 83 83 83 83 84 84 84 84 84 84 84 84 84 83 83 83 83
86 87 69 62 58 54 57 69 71 76 80 79 78 80 74 68 74 75 77 79 80 79 79 80 82 83 83 83 83 83 83 83 83 83 84 83 84 84 84 84 84 84 84 84 84 84 84 83 83
84 74 70 60 58 65 65 73 75 75 81 83 79 71 77 80 76 77 79 80 79 78 79 82 83 83 83 84 83 83 83 83 83 84 84 84 84 84 84 84 84 84 84 84 84 84 84 84 83
78 69 61 60 62 68 71 73 75 74 77 79 79 70 71 78 79 79 79 80 77 77 79 81 83 83 83 84 84 83 83 83 83 83 84 84 84 84 84 84 84 84 84 84 84 84 84 84 84
72 70 59 58 64 73 78 78 80 80 78 77 74 72 69 78 77 78 80 78 79 77 79 80 82 83 83 84 84 83 83 84 84 84 84 84 84 84 84 84 84 84 84 84 84 84 83 84 84
68 62 62 63 67 73 77 84 79 77 77 76 79 67 69 74 78 80 79 79 79 80 79 79 79 82 84 84 84 84 84 84 84 84 84 84 84 84 84 84 84 84 84 84 83 83 83 83 83
72 68 63 63 67 72 81 81 83 79 77 84 81 66 66 75 79 78 78 77 78 78 78 76 77 78 78 79 84 84 84 84 84 84 84 84 84 84 83 83 84 84 84 84 84 83 82 81 83
77 65 61 65 68 76 83 79 85 86 80 82 82 77 79 78 78 75 74 76 76 77 76 75 75 75 76 76 81 84 84 84 84 83 84 83 75 76 80 80 83 84 84 84 84 84 83 82 81
70 61 66 75 79 80 81 81 81 78 78 76 76 79 78 77 75 72 71 73 75 74 74 75 74 75 75 80 78 76 77 76 76 76 76 73 73 73 79 80 83 84 84 84 84 84 84 82 73
73 65 77 80 82 84 81 82 85 77 72 75 72 73 75 75 74 73 73 73 73 75 75 75 75 75 75 77 74 73 73 74 74 74 73 72 73 72 73 73 75 75 80 74 79 77 76 74 72
75 80 82 84 87 84 81 84 79 79 79 83 79 78 76 75 74 74 73 73 74 73 75 75 76 75 74 74 74 73 73 74 74 73 73 71 70 71 71 71 71 72 73 73 77 72 73 72 73
76 80 85 85 86 84 85 80 78 77 82 83 82 79 76 75 76 77 77 76 75 74 75 75 76 75 74 74 74 73 73 74 75 73 73 72 71 70 71 69 71 71 72 72 72 70 72 71 71
83 83 84 83 83 84 79 77 78 77 82 80 79 77 77 77 77 77 77 75 75 76 76 76 75 75 75 74 73 74 72 73 73 73 74 73 72 70 71 70 70 71 71 72 71 70 70 71 72
84 79 80 79 81 80 81 73 73 77 80 77 77 78 78 78 79 77 78 76 76 77 77 76 76 77 75 75 75 75 75 76 73 73 73 73 72 71 71 70 70 71 72 72 71 71 71 71 72
76 76 67 78 80 80 78 64 71 77 76 74 76 77 79 76 78 78 77 78 78 78 77 77 80 78 77 78 77 73 76 76 72 72 73 73 73 72 70 70 70 71 71 71 71 71 69 69 70
68 62 66 72 80 79 75 65 71 77 76 73 73 76 78 75 75 75 78 78 79 79 77 76 77 77 76 77 77 76 73 77 72 71 73 73 74 73 71 71 71 71 71 71 71 70 69 69 69
60 63 69 68 77 77 72 70 73 75 75 73 72 71 68 70 71 74 76 79 80 78 79 77 77 76 75 75 73 73 75 74 73 73 72 73 72 73 71 71 71 71 72 70 70 70 70 69 70
68 67 66 73 81 75 71 70 70 72 73 73 70 66 66 68 72 74 77 79 79 76 73 77 76 73 74 71 72 74 75 73 73 74 74 72 71 72 71 70 71 72 72 72 71 70 70 69 70
70 68 67 74 81 76 71 67 71 72 72 73 72 68 67 68 68 70 73 73 74 75 73 75 76 72 74 73 71 71 70 71 72 73 73 72 72 71 72 71 71 71 71 71 71 71 68 69 70
66 64 68 69 75 74 70 64 64 71 73 75 74 73 69 71 71 71 71 71 73 73 73 72 75 73 71 69 69 69 70 71 70 70 70 70 71 72 71 71 71 71 71 70 71 71 69 68 69
60 75 75 75 68 60 66 54 59 65 68 71 71 69 69 70 73 72 71 71 73 72 72 72 70 71 70 70 69 72 72 68 68 68 70 70 71 72 73 72 72 71 71 71 71 72 70 70 67
68 75 73 73 63 59 61 56 60 61 63 68 69 70 70 71 73 74 71 73 73 75 72 71 70 70 70 70 70 69 71 73 70 68 69 70 71 72 73 72 72 72 71 72 71 71 70 70 69
78 71 67 61 57 52 52 54 56 58 64 68 70 72 74 71 71 72 71 71 70 75 73 72 70 69 69 69 69 70 70 68 66 68 69 69 69 70 72 73 72 72 71 71 71 71 71 70 70
67 58 50 50 50 50 51 53 59 68 71 73 72 74 75 72 70 70 70 69 70 71 71 71 70 69 70 71 70 69 68 69 69 68 68 68 68 70 70 71 71 71 71 71 71 70 70 70 70
62 59 52 46 45 50 53 52 64 71 74 76 76 77 78 75 72 71 72 71 70 72 71 71 70 70 70 70 71 70 69 68 68 69 68 68 68 69 71 71 72 72 72 72 72 70 71 71 70
62 57 61 50 45 48 51 58 68 71 70 74 74 74 75 75 73 71 72 73 72 73 72 71 70 71 71 70 70 70 69 69 70 70 70 69 70 71 72 72 71 71 71 71 71 71 71 71 71
69 70 58 52 45 42 49 52 56 64 69 73 73 71 75 75 72 72 73 74 74 74 73 71 71 71 72 73 70 69 69 69 70 70 70 70 70 71 72 71 70 71 71 71 71 71 71 71 71
63 58 55 55 51 47 44 51 62 66 70 71 72 75 75 74 73 73 74 74 74 74 72 71 70 70 70 70 69 69 69 70 69 70 70 70 71 71 71 70 71 71 70 71 71 71 71 71 71
67 64 58 54 50 48 50 53 69 70 72 72 72 74 73 74 73 74 74 73 73 72 71 71 70 70 70 70 70 70 70 70 70 69 69 70 71 72 71 69 70 72 72 71 71 71 72 71 71
MSLP
1007.00 1007.32 1007.72 1007.91 1008.83 1009.06 1009.04 1007.57 1006.26 1005.96 1005.60 1005.57 1005.94 1006.46 1007.07 1007.68 1008.35 1009.87 1009.51 1009.87 1010.60 1011.51 1011.82 1012.25 1012.50 1012.87 1013.23 1013.54 1013.79 1014.05 1014.16 1014.39 1014.46 1014.66 1014.82 1014.93 1015.25 1015.48 1015.65 1015.80 1015.97 1016.06 1016.13 1016.24 1016.26 1016.40 1016.40 1016.46 1016.65
1006.99 1007.53 1007.63 1007.74 1009.41 1009.98 1009.43 1007.96 1007.38 1006.34 1005.97 1005.80 1006.07 1006.61 1007.32 1007.95 1008.39 1009.20 1009.70 1010.07 1010.58 1011.36 1011.91 1012.38 1012.71 1013.11 1013.50 1013.84 1014.02 1014.12 1014.29 1014.53 1014.82 1014.96 1015.09 1015.19 1015.35 1015.65 1015.93 1016.07 1016.10 1016.21 1016.28 1016.36 1016.42 1016.53 1016.65 1016.80 1016.88
1006.58 1006.70 1007.59 1008.50 1009.56 1009.96 1009.23 1007.82 1007.08 1006.35 1006.05 1005.97 1006.33 1006.70 1007.69 1008.46 1008.97 1009.58 1009.74 1010.25 1010.73 1011.46 1012.02 1012.54 1012.91 1013.34 1013.68 1014.04 1014.24 1014.33 1014.44 1014.65 1014.99 1015.17 1015.29 1015.39 1015.57 1015.76 1016.04 1016.23 1016.37 1016.51 1016.50 1016.59 1016.63 1016.62 1016.75 1016.96 1017.07
1006.06 1007.08 1008.17 1008.47 1009.22 1008.93 1008.47 1007.02 1005.89 1006.07 1005.71 1005.94 1006.61 1007.39 1008.06 1008.22 1009.06 1009.67 1010.29 1010.69 1011.16 1011.77 1012.14 1012.63 1013.14 1013.55 1013.93 1014.12 1014.43 1014.62 1014.65 1014.79 1015.08 1015.38 1015.52 1015.65 1015.71 1015.93 1016.11 1016.37 1016.58 1016.71 1016.74 1016.75 1016.71 1016.76 1016.83 1017.04 1017.16
1006.43 1007.43 1008.42 1008.69 1008.82 1008.15 1007.60 1007.13 1006.52 1005.93 1006.02 1006.26 1006.62 1007.98 1008.77 1009.29 1009.31 1010.02 1010.64 1010.99 1011.26 1012.06 1012.40 1012.77 1013.33 1013.69 1014.10 1014.38 1014.71 1014.84 1014.84 1014.92 1015.17 1015.47 1015.71 1015.79 1015.87 1016.05 1016.29 1016.57 1016.79 1016.88 1016.86 1016.98 1017.05 1016.98 1016.97 1017.07 1017.36
1006.76 1007.67 1008.58 1008.57 1007.83 1006.79 1006.00 1005.55 1005.91 1005.78 1006.19 1006.74 1007.33 1008.17 1009.41 1009.51 1009.61 1010.44 1010.88 1011.34 1011.67 1012.04 1012.49 1012.92 1013.44 1013.84 1014.23 1014.49 1014.79 1015.01 1015.14 1015.19 1015.35 1015.53 1015.76 1015.94 1016.03 1016.20 1016.43 1016.63 1016.88 1017.01 1017.12 1017.10 1017.15 1017.22 1017.24 1017.28 1017.49
1006.81 1007.77 1008.01 1007.83 1007.02 1005.59 1005.08 1004.87 1005.29 1005.61 1006.10 1006.61 1007.13 1008.50 1009.94 1010.10 1010.06 1010.23 1010.92 1011.43 1011.96 1012.15 1012.60 1013.01 1013.48 1013.80 1014.16 1014.53 1014.82 1015.02 1015.13 1015.30 1015.42 1015.60 1015.79 1016.05 1016.19 1016.27 1016.49 1016.75 1016.87 1016.94 1017.12 1017.20 1017.25 1017.35 1017.51 1017.51 1017.62
1006.64 1007.36 1007.51 1007.33 1006.03 1005.00 1004.38 1004.56 1004.95 1005.31 1006.04 1006.42 1007.05 1008.16 1009.63 1009.85 1010.27 1010.77 1011.34 1011.56 1012.12 1012.50 1012.72 1013.06 1013.50 1013.86 1014.16 1014.59 1014.81 1015.08 1015.22 1015.30 1015.50 1015.65 1015.83 1015.99 1016.20 1016.29 1016.30 1016.73 1016.94 1017.02 1017.06 1017.16 1017.12 1017.27 1017.63 1017.79 1017.84
1006.33 1007.12 1007.04 1006.35 1005.29 1004.43 1003.90 1004.42 1005.36 1005.33 1005.82 1006.13 1006.68 1007.28 1007.83 1009.61 1010.53 1011.27 1011.67 1012.14 1012.47 1012.77 1013.03 1013.18 1013.58 1014.09 1014.36 1014.70 1014.85 1015.09 1015.24 1015.32 1015.55 1015.77 1015.92 1016.03 1016.34 1016.54 1016.65 1016.83 1016.91 1017.03 1017.11 1017.12 1017.09 1017.22 1017.48 1017.79 1018.17
1005.98 1006.55 1005.77 1004.86 1004.30 1003.97 1003.98 1004.05 1004.77 1005.41 1005.97 1006.56 1006.78 1007.42 1008.62 1009.71 1010.58 1011.13 1011.67 1012.00 1012.55 1012.91 1013.25 1013.39 1013.61 1014.02 1014.34 1014.54 1014.83 1015.12 1015.20 1015.42 1015.58 1015.79 1016.00 1016.38 1016.54 1016.77 1016.80 1016.84 1016.85 1016.89 1017.05 1017.15 1017.21 1017.24 1017.40 1017.64 1018.19
1005.61 1005.29 1004.21 1003.58 1003.34 1003.69 1004.12 1004.12 1004.19 1005.02 1005.66 1005.99 1006.80 1007.64 1008.77 1009.70 1010.52 1010.96 1011.33 1011.35 1011.99 1012.62 1013.23 1013.47 1013.63 1013.95 1014.30 1014.40 1014.76 1015.02 1015.26 1015.48 1015.63 1015.80 1016.15 1016.47 1016.63 1016.80 1017.00 1017.06 1017.02 1016.98 1017.04 1017.43 1017.40 1017.42 1017.53 1017.76 1018.06
1004.62 1003.62 1003.40 1002.81 1002.48 1003.16 1003.62 1003.78 1004.30 1004.46 1004.61 1005.06 1006.57 1007.37 1008.40 1009.54 1010.26 1010.69 1011.30 1011.68 1011.94 1012.48 1012.86 1013.34 1013.47 1013.87 1014.25 1014.50 1014.67 1014.88 1015.11 1015.41 1015.64 1015.76 1016.01 1016.46 1016.76 1016.82 1016.86 1016.98 1017.10 1017.09 1017.12 1017.33 1017.40 1017.63 1017.59 1017.83 1018.08
1003.92 1003.02 1002.55 1002.39 1002.38 1002.63 1003.29 1003.82 1004.41 1004.80 1004.95 1005.63 1006.68 1007.74 1008.48 1009.29 1009.89 1010.51 1010.86 1011.53 1012.03 1012.43 1012.64 1012.97 1013.37 1013.66 1013.97 1014.39 1014.54 1014.77 1014.95 1015.07 1015.27 1015.74 1015.92 1016.04 1016.47 1016.82 1016.84 1016.91 1017.03 1017.10 1017.17 1017.33 1017.45 1017.59 1017.55 1017.62 1017.97
1002.99 1002.77 1002.09 1002.33 1002.47 1002.78 1003.41 1004.32 1004.50 1005.36 1005.76 1006.18 1006.77 1007.57 1008.18 1008.63 1009.38 1010.04 1010.55 1011.10 1011.58 1011.99 1012.33 1012.71 1012.92 1013.29 1013.61 1014.13 1014.26 1014.46 1014.73 1014.89 1015.27 1015.50 1015.69 1015.89 1016.11 1016.42 1016.63 1016.80 1016.89 1016.80 1016.96 1017.06 1017.23 1017.28 1017.29 1017.33 1017.63
1002.45 1002.45 1002.54 1002.82 1002.66 1003.07 1003.54 1004.67 1004.63 1005.27 1005.96 1006.39 1007.04 1007.38 1007.82 1008.38 1008.89 1008.99 1009.59 1010.37 1010.68 1011.14 1011.71 1012.24 1012.70 1012.89 1013.26 1013.60 1013.80 1013.97 1014.28 1014.63 1015.00 1015.22 1015.41 1015.70 1015.95 1016.26 1016.46 1016.60 1016.76 1016.51 1016.70 1016.87 1016.96 1016.98 1017.07 1017.34 1017.40
1002.92 1002.79 1003.01 1002.87 1002.90 1003.34 1003.75 1004.68 1004.69 1005.70 1005.95 1006.53 1006.92 1007.47 1007.52 1007.61 1007.86 1008.72 1009.14 1009.71 1010.22 1010.56 1011.07 1011.67 1012.02 1012.56 1012.76 1012.90 1013.22 1013.62 1013.94 1014.26 1014.77 1014.83 1015.02 1015.39 1015.62 1016.02 1016.31 1016.43 1016.56 1016.38 1016.48 1016.64 1016.83 1016.96 1017.18 1017.32 1017.35
1004.01 1003.78 1003.35 1002.91 1002.63 1003.03 1003.90 1004.53 1004.96 1005.59 1006.08 1006.32 1007.02 1007.35 1007.58 1008.01 1007.99 1008.38 1008.07 1008.58 1009.59 1009.74 1010.44 1011.08 1011.63 1011.80 1012.25 1012.53 1012.67 1013.15 1013.64 1013.91 1014.38 1014.77 1014.82 1014.96 1015.20 1015.51 1015.99 1016.00 1015.99 1016.18 1016.26 1016.52 1016.68 1016.83 1016.95 1017.19 1017.34
1005.17 1004.82 1003.92 1003.53 1002.84 1002.95 1003.54 1004.27 1004.88 1005.72 1005.87 1006.16 1007.23 1007.45 1007.81 1007.67 1007.48 1006.84 1006.66 1007.05 1007.84 1009.28 1009.68 1010.39 1010.95 1011.34 1011.74 1012.25 1012.70 1013.05 1013.41 1013.62 1013.88 1014.28 1014.45 1014.45 1014.90 1015.17 1015.62 1015.74 1015.71 1015.80 1016.08 1016.19 1016.24 1016.54 1016.77 1016.88 1017.01
1005.13 1004.99 1004.43 1003.05 1002.63 1002.72 1003.37 1004.29 1005.16 1005.42 1005.71 1006.53 1007.12 1007.82 1007.88 1007.47 1007.03 1006.54 1006.50 1005.95 1006.90 1008.27 1009.31 1009.79 1010.45 1010.91 1011.57 1012.18 1012.54 1012.88 1012.99 1013.29 1013.62 1013.71 1013.88 1014.38 1014.68 1014.93 1015.21 1015.52 1015.55 1015.37 1015.69 1015.86 1016.04 1016.25 1016.48 1016.88 1017.06
1004.92 1004.67 1004.04 1003.17 1002.21 1002.64 1003.52 1004.63 1005.11 1005.44 1005.59 1006.04 1006.50 1007.46 1007.71 1007.54 1007.42 1006.93 1006.94 1006.46 1007.04 1007.73 1008.64 1009.41 1009.74 1010.40 1010.75 1011.38 1011.99 1012.36 1012.93 1013.09 1013.31 1013.43 1013.64 1014.01 1014.34 1014.70 1014.88 1015.01 1015.21 1015.37 1015.57 1015.82 1015.76 1015.84 1016.30 1016.52 1016.83
1004.47 1004.43 1003.79 1003.56 1003.16 1003.01 1003.93 1005.13 1005.47 1005.44 1005.49 1005.67 1006.21 1006.74 1007.18 1006.63 1006.27 1005.79 1006.60 1006.97 1007.07 1007.50 1007.94 1008.62 1009.15 1009.92 1010.82 1011.21 1011.78 1012.47 1013.10 1013.39 1013.73 1014.12 1013.91 1014.29 1014.07 1014.18 1014.44 1014.56 1014.75 1015.01 1015.27 1015.40 1015.33 1015.47 1015.89 1016.30 1016.58
1004.25 1003.34 1003.95 1003.35 1003.59 1004.47 1005.08 1006.13 1005.95 1005.34 1004.96 1005.06 1005.64 1005.82 1006.13 1005.78 1005.71 1006.02 1006.21 1006.65 1007.33 1007.46 1008.09 1008.41 1009.19 1009.73 1010.37 1010.87 1011.54 1011.80 1012.07 1012.87 1013.20 1013.98 1013.42 1014.10 1014.17 1014.01 1013.98 1014.04 1014.18 1014.51 1014.82 1014.92 1014.92 1015.14 1015.51 1015.93 1016.23
1003.50 1003.21 1003.93 1003.99 1004.73 1005.49 1006.22 1006.50 1005.51 1005.64 1005.43 1005.12 1005.20 1005.15 1005.05 1004.92 1005.16 1005.58 1006.15 1006.53 1007.14 1007.49 1007.93 1008.28 1009.13 1009.78 1010.24 1010.89 1010.86 1011.45 1011.88 1012.22 1012.40 1013.35 1013.30 1013.72 1013.88 1013.65 1013.57 1013.63 1013.50 1013.92 1014.28 1014.38 1014.57 1014.70 1015.18 1015.45 1015.71
1003.07 1003.89 1004.48 1005.37 1006.11 1007.00 1007.21 1007.24 1005.97 1005.52 1004.57 1004.40 1004.35 1004.22 1004.32 1004.34 1004.81 1005.82 1006.33 1006.39 1006.85 1007.13 1007.88 1008.24 1009.00 1009.41 1009.84 1010.42 1010.66 1010.99 1011.52 1011.98 1012.56 1013.18 1013.37 1013.45 1013.54 1013.41 1013.29 1013.16 1013.24 1013.42 1013.75 1013.90 1013.91 1014.23 1014.64 1014.90 1015.24
1003.63 1004.82 1005.80 1006.98 1007.41 1008.25 1007.83 1007.62 1005.13 1003.80 1003.52 1003.28 1003.37 1003.03 1003.41 1003.64 1004.31 1005.36 1006.02 1006.49 1006.83 1007.30 1007.65 1008.15 1008.56 1009.01 1009.43 1009.98 1010.48 1010.72 1011.18 1011.70 1012.09 1012.47 1012.80 1013.16 1013.32 1013.11 1012.98 1013.00 1013.08 1013.09 1013.26 1013.49 1013.63 1013.84 1014.12 1014.44 1014.88
1003.38 1004.46 1005.81 1007.08 1008.26 1008.50 1008.04 1006.91 1004.12 1002.75 1002.57 1002.61 1002.29 1002.17 1002.47 1003.05 1003.61 1004.72 1005.30 1005.72 1006.33 1006.94 1007.32 1007.72 1008.15 1008.66 1009.14 1009.71 1010.09 1010.42 1010.84 1011.48 1011.84 1012.03 1012.46 1012.71 1012.77 1012.73 1012.94 1012.99 1012.79 1012.31 1012.59 1013.21 1013.31 1013.48 1013.71 1014.03 1014.41
1002.93 1004.14 1004.50 1006.77 1008.60 1008.51 1007.81 1006.29 1003.80 1002.48 1002.24 1002.00 1002.20 1001.97 1002.11 1002.26 1003.22 1004.18 1004.82 1005.39 1005.75 1006.43 1006.88 1007.28 1007.87 1008.43 1009.06 1009.50 1009.73 1009.90 1010.44 1011.08 1011.68 1011.75 1011.94 1012.14 1012.37 1012.36 1012.63 1012.56 1012.60 1012.61 1012.73 1012.85 1013.09 1013.14 1013.43 1013.67 1013.98
1002.17 1002.88 1004.65 1006.57 1008.37 1008.91 1007.94 1006.65 1004.39 1002.85 1002.17 1001.50 1001.45 1001.87 1001.81 1002.01 1002.90 1003.71 1004.02 1004.65 1005.43 1006.00 1006.59 1007.24 1007.62 1008.13 1008.67 1009.05 1009.33 1009.48 1009.69 1010.85 1011.20 1011.42 1011.58 1011.72 1011.77 1011.94 1012.04 1012.21 1012.52 1012.54 1012.74 1012.59 1012.62 1012.85 1013.15 1013.42 1013.64
1002.37 1003.08 1004.66 1006.00 1007.33 1008.12 1007.79 1006.34 1003.31 1002.65 1002.09 1001.77 1001.49 1001.19 1001.24 1001.61 1002.19 1003.06 1003.78 1004.25 1004.93 1005.70 1006.35 1007.04 1007.61 1007.87 1008.28 1008.49 1008.91 1009.15 1009.26 1010.47 1010.89 1011.03 1011.19 1011.33 1011.30 1011.42 1011.56 1011.84 1012.27 1012.40 1012.46 1012.37 1012.61 1012.82 1013.00 1013.29 1013.48
1001.99 1002.66 1003.64 1005.45 1007.29 1007.28 1006.62 1004.56 1002.56 1002.17 1001.84 1001.64 1001.24 1000.99 1000.93 1001.44 1002.23 1002.82 1003.41 1004.04 1004.75 1005.31 1006.19 1006.78 1007.17 1007.57 1007.93 1008.08 1008.37 1008.88 1009.44 1010.12 1010.47 1010.62 1010.76 1010.86 1010.88 1011.06 1011.24 1011.59 1012.14 1012.34 1012.41 1012.38 1012.49 1012.56 1012.78 1013.09 1013.34
Wind_Speed
10 9 3 2 4 5 4 5 6 3 2 2 5 3 5 3 2 4 9 12 17 14 13 14 19 19 20 19 18 19 19 19 18 18 18 19 17 16 15 14 14 12 12 13 12 11 12 14 13
5 6 1 2 6 4 6 7 7 4 4 7 7 3 5 3 5 10 10 16 19 14 12 13 18 19 20 18 18 19 18 19 17 16 17 17 17 16 14 12 13 13 13 12 12 13 12 12 12
7 2 4 5 1 4 5 2 8 7 5 1 3 5 3 3 10 12 11 18 17 14 10 13 18 18 19 18 17 17 17 18 17 16 17 16 17 16 14 10 12 12 11 13 12 13 13 12 12
4 4 4 5 5 4 6 5 7 2 4 5 6 7 5 1 11 7 16 17 15 12 10 16 19 20 19 19 17 17 16 18 17 16 16 16 16 16 13 11 11 11 11 10 12 13 12 12 12
3 3 4 2 1 5 13 17 4 9 3 5 3 4 7 3 13 18 16 15 15 11 10 14 18 18 17 17 17 17 16 17 15 17 16 16 15 14 13 11 10 10 10 10 10 12 12 12 11
3 1 3 2 4 5 6 16 8 4 7 7 7 6 3 14 18 15 15 13 12 12 10 10 18 18 17 16 17 17 16 16 15 14 16 14 14 15 13 12 11 9 8 10 9 9 10 11 11
6 3 3 2 2 3 6 9 10 7 8 5 9 4 4 11 13 15 14 13 12 12 10 9 10 14 18 16 17 16 16 16 15 14 14 13 12 12 12 11 11 11 10 8 7 8 8 9 10
5 3 3 1 4 6 10 6 9 7 3 9 11 7 8 13 15 13 11 12 12 11 10 8 8 8 8 8 16 16 15 16 15 14 14 14 13 10 10 10 9 9 9 9 8 7 6 5 7
3 3 3 4 1 3 10 7 6 5 12 3 6 8 13 19 16 13 11 9 9 9 9 8 7 6 6 5 9 14 15 15 15 14 14 10 4 4 7 9 11 10 9 9 9 7 5 5 5
4 2 7 6 2 5 5 14 9 5 8 3 6 15 21 20 17 16 14 16 15 12 9 8 8 8 6 6 5 6 6 4 5 5 5 4 4 3 5 8 11 11 10 10 9 8 6 4 4
4 5 6 5 6 4 9 8 4 13 5 6 16 22 22 20 17 16 15 16 15 13 9 9 9 7 7 6 4 3 2 3 3 6 5 4 3 3 2 2 3 3 7 3 5 4 2 4 2
4 8 7 2 3 9 9 7 6 8 4 12 18 23 21 20 17 16 14 13 15 14 13 11 11 10 8 4 4 4 4 4 3 4 6 4 3 3 3 3 4 3 2 4 3 2 4 4 3
5 8 4 2 5 8 7 4 4 2 9 15 16 19 19 18 16 13 13 11 12 14 14 14 12 11 9 8 5 5 5 5 5 4 5 4 4 4 3 4 4 4 3 3 3 4 4 5 5
6 12 5 5 8 8 9 4 2 3 9 15 17 18 18 18 17 12 13 14 14 13 14 14 14 13 11 9 8 7 5 5 4 4 5 6 4 4 4 3 4 4 3 3 4 4 4 4 4
9 6 5 4 6 4 12 2 6 10 11 13 14 16 15 16 15 16 16 16 17 15 13 15 15 14 13 12 10 7 7 6 5 6 6 6 6 5 4 4 4 4 3 4 3 3 3 3 3
5 5 4 6 5 4 2 7 3 9 14 12 11 11 15 13 12 7 8 14 14 14 15 14 14 14 14 14 10 7 6 6 5 4 5 6 7 6 5 4 4 4 3 2 2 3 3 3 3
7 2 2 4 10 7 6 3 5 7 10 12 11 10 12 6 2 4 7 11 13 16 16 15 14 15 14 12 9 9 7 6 5 4 6 7 8 6 5 4 4 4 3 3 3 3 3 3 3
3 4 7 5 4 7 8 3 9 8 13 13 9 7 6 7 8 11 15 13 14 13 15 16 13 14 13 8 6 4 6 7 6 7 6 6 5 6 4 3 5 4 3 3 3 4 3 2 3
2 3 7 13 10 6 9 4 10 12 13 10 8 9 8 11 12 11 12 7 10 12 11 17 15 12 10 6 7 8 9 6 5 6 8 6 5 5 5 4 5 4 4 3 4 3 4 4 2
3 6 10 12 12 6 4 2 4 12 8 10 12 12 12 7 9 13 13 6 10 11 14 14 16 13 13 9 5 3 3 2 1 2 3 5 6 7 7 6 5 5 3 4 5 4 2 2 4
3 5 8 9 3 5 6 6 2 3 4 6 6 8 13 17 12 9 7 4 6 11 14 14 15 12 8 7 5 4 4 3 2 1 2 3 4 5 5 6 5 5 4 4 4 4 5 4 2
6 4 10 7 4 3 4 4 5 7 10 6 6 7 11 16 10 6 6 8 8 5 7 8 7 11 9 10 7 8 9 6 5 3 3 3 5 5 6 7 7 6 4 5 4 4 3 3 4
13 3 5 4 5 5 4 5 8 2 7 10 8 11 14 15 15 12 3 5 5 6 9 9 8 8 9 9 8 7 5 4 4 6 8 8 5 5 5 6 6 4 5 6 6 4 5 4 3
7 2 7 6 4 4 1 4 7 5 8 6 7 12 15 13 12 4 5 6 5 7 8 11 12 10 11 10 7 8 7 6 5 4 4 4 4 4 5 5 4 4 5 6 5 5 6 5 4
4 7 3 4 5 6 2 2 12 5 7 7 10 15 14 11 9 8 8 7 5 7 10 10 12 11 11 10 10 8 7 7 7 6 5 4 3 3 5 4 4 4 4 5 4 5 6 5 4
7 9 8 6 5 5 2 5 9 6 5 6 10 14 12 11 11 10 10 9 10 10 9 11 12 11 11 10 10 8 7 4 4 5 4 4 4 4 4 5 6 5 4 4 4 3 4 5 4
4 4 5 9 5 4 3 8 12 3 1 7 9 10 13 13 10 11 9 9 9 11 12 12 12 9 11 11 9 9 7 6 5 6 5 4 4 4 6 5 3 4 4 3 3 4 5 5 5
8 5 4 4 5 3 5 5 8 4 7 8 3 10 12 10 7 9 9 9 9 10 9 10 10 13 14 13 10 7 7 6 7 5 6 6 6 6 5 5 5 5 5 4 3 2 4 5 4
2 0 6 6 5 8 3 8 8 8 7 8 8 9 10 12 9 9 10 9 10 8 8 9 9 10 10 10 7 6 6 7 5 5 5 6 5 5 5 6 6 5 5 5 3 2 3 5 5
4 8 6 7 6 2 5 9 5 10 8 7 11 10 7 9 10 11 11 10 9 8 7 8 7 8 8 7 6 6 5 6 6 6 6 6 6 5 7 6 5 5 4 4 4 3 2 5 6
Wind_Direction
163 156 170 135 43 44 351 13 333 114 34 13 109 158 153 36 161 206 141 135 135 146 148 150 142 140 140 136 134 133 132 131 128 127 127 129 128 124 125 122 122 126 125 127 121 121 119 120 123
143 169 30 70 74 42 320 320 44 56 94 103 82 84 41 73 69 121 123 145 141 144 148 147 143 146 144 141 140 138 140 134 130 130 130 131 132 129 127 123 129 129 125 127 126 125 118 122 126
168 219 86 87 137 160 217 244 140 139 187 230 110 67 69 94 109 140 130 140 137 142 140 149 147 149 146 145 144 142 140 133 135 132 134 134 134 138 131 129 131 127 128 126 126 125 125 128 129
168 27 40 92 175 256 211 268 205 111 26 61 123 82 60 142 137 130 138 137 135 140 142 154 153 152 151 149 148 148 149 137 138 136 137 141 143 142 143 137 135 134 133 134 135 125 126 132 136
51 66 53 34 94 224 219 242 253 143 134 92 44 74 100 44 114 133 140 141 139 141 150 152 155 156 157 152 152 154 158 142 144 141 143 148 142 145 145 143 142 140 133 138 142 136 132 134 137
53 93 70 240 216 245 191 205 189 147 106 114 99 104 44 137 134 144 146 145 143 144 154 157 156 161 161 162 154 163 156 146 149 150 147 152 147 150 153 149 144 152 145 143 152 143 139 136 143
124 97 178 198 231 208 191 146 179 146 148 132 134 81 97 153 141 144 144 138 143 149 153 159 158 166 168 168 160 166 155 155 155 154 151 151 156 157 154 155 156 158 164 160 164 160 154 145 146
114 102 145 290 236 189 142 132 143 133 114 104 139 153 168 170 141 135 137 138 144 149 155 150 155 164 161 172 164 170 162 161 158 159 157 158 164 171 161 164 170 175 176 174 179 179 165 166 154
145 76 144 243 278 62 130 117 153 98 144 209 187 150 149 141 132 128 130 137 146 152 158 145 138 142 145 158 173 170 169 166 162 165 169 161 142 167 177 175 185 185 192 193 193 200 201 195 165
92 115 219 202 206 103 115 132 145 122 172 56 93 111 131 141 146 146 156 159 170 166 162 154 143 154 151 166 186 169 175 155 162 158 167 148 162 173 187 196 198 196 204 207 205 207 210 205 122
152 214 188 224 200 112 142 147 136 140 208 185 154 144 149 152 156 162 171 169 171 168 167 169 156 158 161 171 164 150 155 168 174 172 171 168 167 186 243 223 232 214 216 227 218 212 214 157 169
251 233 235 128 265 152 181 146 159 192 219 139 157 155 151 162 166 172 172 171 171 175 178 178 173 169 177 162 172 170 171 181 193 188 174 167 189 209 226 199 212 224 217 219 212 205 231 165 175
204 274 250 26 110 118 121 131 138 60 117 127 147 154 162 167 170 177 179 174 170 181 184 183 177 179 178 175 179 180 190 194 187 179 199 179 186 214 218 210 195 217 202 201 194 211 228 176 192
225 237 218 164 161 139 128 153 114 138 128 134 151 163 173 172 176 174 179 183 181 184 190 183 183 183 180 185 181 189 188 197 180 189 205 198 192 198 197 190 204 199 198 201 204 209 208 199 175
278 168 109 177 163 141 117 294 242 131 146 147 160 178 178 182 186 186 185 186 183 192 186 188 190 184 183 188 191 186 197 193 192 201 208 198 194 198 194 200 208 218 188 217 208 227 187 188 188
337 74 133 185 153 153 98 240 257 154 149 171 177 186 195 191 185 140 176 189 192 190 187 192 188 193 190 191 188 190 194 193 195 210 199 204 199 186 191 197 211 213 180 183 210 205 198 198 194
5 211 233 300 195 148 202 231 192 187 165 185 178 193 205 201 179 148 154 172 203 194 187 192 195 192 194 194 187 181 190 197 186 213 215 195 200 185 196 203 211 211 182 185 196 212 179 178 193
17 1 318 276 253 190 200 228 182 186 194 189 175 143 126 172 193 216 182 173 184 203 192 194 194 197 191 185 177 174 178 207 170 199 220 176 188 190 195 213 229 207 216 207 187 200 199 170 188
303 260 276 283 286 151 208 177 192 201 208 188 191 153 172 187 206 218 227 176 170 173 189 193 191 193 178 177 176 186 191 181 179 195 192 198 194 179 194 216 229 214 225 211 198 184 192 204 138
227 288 288 291 280 152 126 102 170 193 217 212 183 176 194 222 214 228 231 173 161 181 185 197 199 186 190 184 181 144 145 175 161 157 165 190 204 193 209 206 211 219 215 222 208 178 168 176 172
278 228 282 250 243 50 90 344 329 200 244 209 200 184 201 220 214 241 199 198 158 186 179 191 193 185 181 145 127 96 93 76 92 168 74 285 231 217 213 219 214 213 202 216 205 184 172 185 170
289 212 261 253 107 182 44 247 282 237 230 222 194 201 214 229 230 249 196 177 199 176 152 151 160 171 164 152 159 165 182 167 160 223 123 264 249 243 230 218 220 209 197 210 200 183 179 166 188
242 78 234 234 79 97 355 82 267 100 259 248 227 230 231 229 227 224 203 162 177 159 155 141 146 155 157 173 172 177 174 172 161 191 178 236 245 245 253 241 229 216 199 212 192 196 190 193 163
271 263 36 28 94 40 4 108 281 200 212 249 222 226 235 233 234 214 133 118 183 162 161 162 166 164 164 180 179 182 192 170 150 175 195 216 229 236 254 257 239 224 207 211 192 194 194 192 189
114 67 322 351 31 212 43 53 239 222 215 205 209 241 230 219 220 191 173 159 169 175 168 168 170 170 175 180 193 187 190 177 179 176 194 204 226 226 256 254 227 212 207 217 201 186 191 180 189
184 161 157 188 180 245 82 237 259 196 183 218 222 224 230 227 214 198 195 173 184 182 172 169 176 173 177 190 195 193 177 180 199 196 183 206 213 222 237 226 227 179 172 209 201 180 183 182 206
215 192 189 99 6 72 245 289 303 0 92 223 216 204 221 228 203 194 183 180 179 184 184 175 170 171 183 193 192 194 184 188 199 201 199 202 209 226 227 210 206 161 162 136 203 183 194 191 198
161 171 78 21 122 228 278 273 237 292 310 303 273 190 220 218 170 177 176 171 171 174 172 164 165 181 190 195 196 191 172 184 209 199 208 207 208 207 191 195 210 190 187 168 72 185 184 186 195
5 173 57 115 126 158 206 262 215 236 236 249 268 243 199 193 164 158 167 157 156 155 157 162 166 168 184 189 181 177 169 194 208 206 217 219 209 198 186 177 188 181 182 149 145 225 192 195 199
177 217 157 136 219 184 162 265 219 223 234 214 257 243 216 149 155 153 160 150 150 154 164 171 166 175 192 182 159 186 187 186 200 213 211 201 202 179 178 179 174 185 185 170 170 254 214 199 198